• In Österreich
  • Länderverzeichnis
  • Für 7 Tage
  • Wassertemperatur
  • Satellitenkarten
  • Wetterkarte
  • News
  • Widgets
  • user-avatar
    Anmelden

    Stündliche Wetter Dobritsch

    Heute, 21 Oktober, Sonntag

    Zeit Temperatur Niederschläge Wind Luftdruck Luftfeuchtigkeit
    00:00 +13°C° 0 mm 4 m/S 741 mmHg 79%
    01:00 +13°C° 0 mm 4 m/S 741 mmHg 80%
    02:00 +13°C° 0 mm 4 m/S 741 mmHg 80%
    03:00 +12°C° 0 mm 4 m/S 741 mmHg 82%
    04:00 +12°C° 0 mm 4 m/S 740 mmHg 83%
    05:00 +12°C° 0 mm 4 m/S 740 mmHg 85%
    06:00 +12°C° 0 mm 4 m/S 740 mmHg 84%
    07:00 +12°C° 0 mm 4 m/S 741 mmHg 83%
    08:00 +12°C° 0 mm 4 m/S 741 mmHg 80%
    09:00 +14°C° 0 mm 4 m/S 741 mmHg 74%
    10:00 +15°C° 0 mm 4 m/S 741 mmHg 67%
    11:00 +18°C° 0 mm 4 m/S 741 mmHg 61%
    12:00 +18°C° 0.1 mm 4 m/S 741 mmHg 59%
    13:00 +19°C° 0.1 mm 4 m/S 741 mmHg 57%
    14:00 +19°C° 0.1 mm 4 m/S 741 mmHg 55%
    15:00 +19°C° 0.2 mm 4 m/S 741 mmHg 58%
    16:00 +18°C° 0.2 mm 4 m/S 741 mmHg 61%
    17:00 +17°C° 0.2 mm 3 m/S 741 mmHg 64%
    18:00 +16°C° 0 mm 3 m/S 741 mmHg 67%
    19:00 +16°C° 0 mm 2 m/S 742 mmHg 71%
    20:00 +15°C° 0 mm 2 m/S 742 mmHg 74%
    21:00 +15°C° 0 mm 2 m/S 742 mmHg 75%
    22:00 +14°C° 0 mm 2 m/S 742 mmHg 75%
    23:00 +13°C° 0 mm 3 m/S 742 mmHg 75%

    Morgen, 22 Oktober, Montag

    Zeit Temperatur Niederschläge Wind Luftdruck Luftfeuchtigkeit
    00:00 +12°C° 0 mm 3 m/S 743 mmHg 75%
    01:00 +12°C° 0 mm 3 m/S 743 mmHg 74%
    02:00 +11°C° 0 mm 4 m/S 743 mmHg 74%
    03:00 +11°C° 0 mm 4 m/S 743 mmHg 75%
    04:00 +10°C° 0 mm 4 m/S 743 mmHg 76%
    05:00 +10°C° 0 mm 4 m/S 743 mmHg 77%
    06:00 +10°C° 0 mm 4 m/S 743 mmHg 75%
    07:00 +9°C° 0 mm 5 m/S 743 mmHg 73%
    08:00 +10°C° 0 mm 5 m/S 743 mmHg 72%
    09:00 +12°C° 0 mm 5 m/S 744 mmHg 66%
    10:00 +13°C° 0 mm 5 m/S 744 mmHg 60%
    11:00 +15°C° 0 mm 5 m/S 744 mmHg 53%
    12:00 +16°C° 0 mm 5 m/S 744 mmHg 51%
    13:00 +17°C° 0 mm 4 m/S 743 mmHg 48%
    14:00 +18°C° 0 mm 4 m/S 743 mmHg 46%
    15:00 +17°C° 0 mm 4 m/S 743 mmHg 49%
    16:00 +16°C° 0 mm 3 m/S 743 mmHg 51%
    17:00 +14°C° 0 mm 3 m/S 742 mmHg 54%
    18:00 +15°C° 0 mm 2 m/S 743 mmHg 57%
    19:00 +14°C° 0 mm 2 m/S 743 mmHg 61%
    20:00 +13°C° 0 mm 2 m/S 743 mmHg 64%
    21:00 +12°C° 0 mm 2 m/S 743 mmHg 65%
    22:00 +12°C° 0 mm 2 m/S 743 mmHg 66%
    23:00 +12°C° 0 mm 2 m/S 743 mmHg 66%

    übermorgen, 23 Oktober, Dienstag

    Zeit Temperatur Niederschläge Wind Luftdruck Luftfeuchtigkeit
    00:00 +10°C° 0 mm 2 m/S 743 mmHg 66%
    01:00 +10°C° 0 mm 2 m/S 743 mmHg 66%
    02:00 +10°C° 0 mm 2 m/S 742 mmHg 66%
    03:00 +9°C° 0 mm 2 m/S 742 mmHg 66%
    04:00 +9°C° 0 mm 2 m/S 742 mmHg 66%
    05:00 +9°C° 0 mm 2 m/S 742 mmHg 65%
    06:00 +9°C° 0 mm 2 m/S 742 mmHg 63%
    07:00 +10°C° 0 mm 2 m/S 742 mmHg 60%
    08:00 +10°C° 0 mm 2 m/S 742 mmHg 57%
    09:00 +13°C° 0 mm 2 m/S 742 mmHg 51%
    10:00 +15°C° 0 mm 2 m/S 742 mmHg 45%
    11:00 +16°C° 0 mm 2 m/S 742 mmHg 39%
    12:00 +17°C° 0 mm 2 m/S 742 mmHg 38%
    13:00 +18°C° 0 mm 2 m/S 741 mmHg 37%
    14:00 +19°C° 0 mm 1 m/S 741 mmHg 36%
    15:00 +18°C° 0 mm 1 m/S 740 mmHg 39%
    16:00 +16°C° 0 mm 1 m/S 740 mmHg 43%
    17:00 +15°C° 0 mm 1 m/S 739 mmHg 46%
    18:00 +15°C° 0 mm 2 m/S 739 mmHg 50%
    19:00 +14°C° 0 mm 2 m/S 739 mmHg 53%
    20:00 +13°C° 0 mm 2 m/S 739 mmHg 57%
    21:00 +13°C° 0 mm 2 m/S 739 mmHg 58%
    22:00 +11°C° 0 mm 3 m/S 738 mmHg 60%
    23:00 +11°C° 0 mm 3 m/S 738 mmHg 61%

    24 Oktober, Mittwoch

    Zeit Temperatur Niederschläge Wind Luftdruck Luftfeuchtigkeit
    00:00 +11°C° 0 mm 3 m/S 737 mmHg 61%
    01:00 +11°C° 0 mm 4 m/S 737 mmHg 60%
    02:00 +11°C° 0 mm 4 m/S 736 mmHg 60%
    03:00 +9°C° 0 mm 5 m/S 735 mmHg 60%
    04:00 +9°C° 0 mm 5 m/S 735 mmHg 60%
    05:00 +9°C° 0 mm 6 m/S 734 mmHg 61%
    06:00 +10°C° 0 mm 7 m/S 734 mmHg 58%
    07:00 +10°C° 0 mm 8 m/S 733 mmHg 55%
    08:00 +10°C° 0 mm 8 m/S 733 mmHg 53%
    09:00 +11°C° 0 mm 9 m/S 732 mmHg 52%
    10:00 +12°C° 0 mm 9 m/S 732 mmHg 51%
    11:00 +12°C° 0 mm 9 m/S 731 mmHg 50%
    12:00 +13°C° 0.1 mm 10 m/S 730 mmHg 47%
    13:00 +14°C° 0.1 mm 10 m/S 729 mmHg 43%
    14:00 +17°C° 0.1 mm 10 m/S 728 mmHg 40%
    15:00 +16°C° 0 mm 10 m/S 728 mmHg 42%
    16:00 +14°C° 0 mm 10 m/S 728 mmHg 44%
    17:00 +14°C° 0 mm 10 m/S 727 mmHg 46%
    18:00 +12°C° 0.2 mm 10 m/S 728 mmHg 48%
    19:00 +9°C° 0.2 mm 10 m/S 728 mmHg 50%
    20:00 +7°C° 0.2 mm 10 m/S 729 mmHg 52%
    21:00 +6°C° 0.1 mm 8 m/S 730 mmHg 52%
    22:00 +5°C° 0.1 mm 7 m/S 731 mmHg 51%
    23:00 +6°C° 0.1 mm 5 m/S 731 mmHg 51%

    25 Oktober, Donnerstag

    Zeit Temperatur Niederschläge Wind Luftdruck Luftfeuchtigkeit
    00:00 +5°C° 0 mm 5 m/S 732 mmHg 49%
    01:00 +4°C° 0 mm 6 m/S 732 mmHg 46%
    02:00 +3°C° 0 mm 6 m/S 732 mmHg 44%
    03:00 +3°C° 0 mm 6 m/S 732 mmHg 44%
    04:00 +3°C° 0 mm 7 m/S 732 mmHg 44%
    05:00 +3°C° 0 mm 7 m/S 732 mmHg 44%
    06:00 +4°C° 0 mm 7 m/S 733 mmHg 44%
    07:00 +4°C° 0 mm 8 m/S 734 mmHg 43%
    08:00 +4°C° 0 mm 8 m/S 734 mmHg 42%
    09:00 +5°C° 0 mm 8 m/S 735 mmHg 40%
    10:00 +7°C° 0 mm 8 m/S 735 mmHg 37%
    11:00 +9°C° 0 mm 8 m/S 736 mmHg 34%
    12:00 +10°C° 0 mm 7 m/S 736 mmHg 32%
    13:00 +10°C° 0 mm 7 m/S 736 mmHg 31%
    14:00 +11°C° 0 mm 7 m/S 736 mmHg 29%
    15:00 +10°C° 0 mm 6 m/S 736 mmHg 31%
    16:00 +9°C° 0 mm 5 m/S 736 mmHg 32%
    17:00 +10°C° 0 mm 4 m/S 736 mmHg 33%
    18:00 +8°C° 0 mm 5 m/S 736 mmHg 34%
    19:00 +8°C° 0 mm 5 m/S 736 mmHg 36%
    20:00 +7°C° 0 mm 5 m/S 737 mmHg 37%
    21:00 +7°C° 0 mm 6 m/S 737 mmHg 38%
    22:00 +7°C° 0 mm 6 m/S 737 mmHg 40%
    23:00 +7°C° 0 mm 6 m/S 737 mmHg 41%

    26 Oktober, Freitag

    Zeit Temperatur Niederschläge Wind Luftdruck Luftfeuchtigkeit
    00:00 +7°C° 0 mm 6 m/S 737 mmHg 49%
    01:00 +7°C° 0 mm 6 m/S 737 mmHg 56%
    02:00 +5°C° 0 mm 7 m/S 737 mmHg 64%
    03:00 +5°C° 0 mm 7 m/S 737 mmHg 68%
    04:00 +5°C° 0 mm 6 m/S 737 mmHg 72%
    05:00 +7°C° 0 mm 6 m/S 737 mmHg 76%
    06:00 +7°C° 0 mm 6 m/S 738 mmHg 74%
    07:00 +8°C° 0 mm 6 m/S 738 mmHg 73%
    08:00 +8°C° 0 mm 6 m/S 739 mmHg 71%
    09:00 +10°C° 0 mm 6 m/S 739 mmHg 65%
    10:00 +13°C° 0 mm 6 m/S 739 mmHg 58%
    11:00 +14°C° 0 mm 6 m/S 740 mmHg 52%
    12:00 +15°C° 0 mm 5 m/S 740 mmHg 49%
    13:00 +17°C° 0 mm 4 m/S 740 mmHg 46%
    14:00 +18°C° 0 mm 4 m/S 739 mmHg 44%
    15:00 +17°C° 0 mm 3 m/S 740 mmHg 46%
    16:00 +16°C° 0 mm 2 m/S 740 mmHg 49%
    17:00 +15°C° 0 mm 1 m/S 740 mmHg 51%
    18:00 +14°C° 0 mm 2 m/S 740 mmHg 53%
    19:00 +14°C° 0 mm 2 m/S 740 mmHg 56%
    20:00 +13°C° 0 mm 2 m/S 741 mmHg 59%
    21:00 +12°C° 0 mm 3 m/S 741 mmHg 60%
    22:00 +12°C° 0 mm 3 m/S 741 mmHg 61%
    23:00 +11°C° 0 mm 3 m/S 741 mmHg 63%
    Mehr zeigen